Tracking 17631 objects as of 4-May-2016
HD Live streaming from Space Station
objects crossing your sky now

ASTRA 1D

Track ASTRA 1D now!
ASTRA 1D is classified as:


NORAD ID: 23331
Int'l Code: 1994-070A
Perigee: 35,777.6 km
Apogee: 35,808.8 km
Inclination: 6.9 °
Period: 1,436.1 minutes
Semi major axis: 42164 km
RCS: 75.2376 m2 (large)
Launch date: November 1, 1994
Source: Luxembourg (LUXE)
Launch site: FRENCH GUIANA (FRGUI)

Primarily backup for Astra 1B and 1C; 18 Ku-band transponders; continental Europe.
Your satellite tracking list
Your tracking list is empty





NASA's NSSDC Master Catalog

Two Line Element Set (TLE):
1 23331U 94070A   16124.41181914 -.00000293  00000-0  00000+0 0  9999
2 23331   6.9245  52.4091 0003705 341.1627 289.1157  1.00273779 79094
Source of the keplerian elements: AFSPC

N2YO: 322